Time,TemperatureF,DewpointF,PressureIn,WindDirection,WindDirectionDegrees,WindSpeedMPH,WindSpeedGustMPH,Humidity,HourlyPrecipIn,Conditions,Clouds,dailyrainin,SoftwareType,DateUTC
2013-10-19 00:06:00,41.4,38.0,29.93,NNE,30,0.0,0.0,87,0.00,,,0.00,weatherlink.com 1.10,2013-10-19 05:06:00,
2013-10-19 00:21:00,41.3,38.0,29.92,NNE,30,0.0,0.0,88,0.00,,,0.00,weatherlink.com 1.10,2013-10-19 05:21:00,
2013-10-19 00:36:00,41.0,38.0,29.92,NNE,30,0.0,0.0,89,0.00,,,0.00,weatherlink.com 1.10,2013-10-19 05:36:00,
2013-10-19 00:51:00,40.6,38.0,29.92,NNE,30,0.0,0.0,89,0.00,,,0.00,weatherlink.com 1.10,2013-10-19 05:51:00,
2013-10-19 01:06:00,40.4,38.0,29.91,NNE,30,0.0,0.0,90,0.00,,,0.00,weatherlink.com 1.10,2013-10-19 06:06:00,
2013-10-19 01:21:00,40.0,38.0,29.91,NNE,30,0.0,0.0,91,0.00,,,0.00,weatherlink.com 1.10,2013-10-19 06:21:00,
2013-10-19 01:36:00,39.8,38.0,29.91,NNE,30,0.0,0.0,92,0.00,,,0.00,weatherlink.com 1.10,2013-10-19 06:36:00,
2013-10-19 01:51:00,39.7,38.0,29.90,NNE,30,0.0,0.0,92,0.00,,,0.00,weatherlink.com 1.10,2013-10-19 06:51:00,
2013-10-19 02:06:00,39.5,37.0,29.89,NNE,30,0.0,0.0,92,0.00,,,0.00,weatherlink.com 1.10,2013-10-19 07:06:00,
2013-10-19 02:21:00,39.3,38.0,29.89,NNE,30,0.0,0.0,93,0.00,,,0.00,weatherlink.com 1.10,2013-10-19 07:21:00,
2013-10-19 02:36:00,39.2,37.0,29.89,NNE,30,0.0,0.0,93,0.00,,,0.00,weatherlink.com 1.10,2013-10-19 07:36:00,
2013-10-19 02:51:00,39.2,37.0,29.88,NNE,30,0.0,0.0,93,0.00,,,0.00,weatherlink.com 1.10,2013-10-19 07:51:00,
2013-10-19 03:06:00,38.9,37.0,29.87,NNE,30,0.0,0.0,93,0.00,,,0.00,weatherlink.com 1.10,2013-10-19 08:06:00,
2013-10-19 03:21:00,38.8,37.0,29.86,NNE,30,0.0,0.0,93,0.00,,,0.00,weatherlink.com 1.10,2013-10-19 08:21:00,
2013-10-19 03:36:00,38.6,37.0,29.86,NNE,30,0.0,0.0,94,0.00,,,0.00,weatherlink.com 1.10,2013-10-19 08:36:00,
2013-10-19 03:52:00,38.6,37.0,29.86,NNE,30,0.0,0.0,94,0.00,,,0.00,weatherlink.com 1.10,2013-10-19 08:52:00,
2013-10-19 04:06:00,38.5,37.0,29.86,NNE,30,0.0,0.0,94,0.00,,,0.00,weatherlink.com 1.10,2013-10-19 09:06:00,
2013-10-19 04:22:00,38.2,37.0,29.85,NNE,30,0.0,0.0,94,0.00,,,0.00,weatherlink.com 1.10,2013-10-19 09:22:00,
2013-10-19 04:37:00,38.2,37.0,29.85,NNE,30,0.0,0.0,94,0.00,,,0.00,weatherlink.com 1.10,2013-10-19 09:37:00,
2013-10-19 04:52:00,38.2,37.0,29.84,NNE,30,0.0,0.0,94,0.00,,,0.00,weatherlink.com 1.10,2013-10-19 09:52:00,
2013-10-19 05:07:00,38.0,37.0,29.84,NNE,30,0.0,0.0,94,0.00,,,0.00,weatherlink.com 1.10,2013-10-19 10:07:00,
2013-10-19 05:22:00,37.9,36.0,29.84,NNE,30,0.0,0.0,94,0.00,,,0.00,weatherlink.com 1.10,2013-10-19 10:22:00,
2013-10-19 05:37:00,37.8,36.0,29.84,NNE,30,0.0,0.0,94,0.00,,,0.00,weatherlink.com 1.10,2013-10-19 10:37:00,
2013-10-19 05:52:00,37.7,36.0,29.84,NNE,30,0.0,0.0,95,0.00,,,0.00,weatherlink.com 1.10,2013-10-19 10:52:00,
2013-10-19 06:07:00,37.5,36.0,29.84,NNE,30,0.0,0.0,94,0.00,,,0.00,weatherlink.com 1.10,2013-10-19 11:07:00,
2013-10-19 06:22:00,37.4,36.0,29.84,NNE,30,0.0,0.0,95,0.00,,,0.00,weatherlink.com 1.10,2013-10-19 11:22:00,
2013-10-19 06:37:00,37.4,36.0,29.84,NNE,30,0.0,0.0,95,0.00,,,0.00,weatherlink.com 1.10,2013-10-19 11:37:00,
2013-10-19 06:52:00,37.4,36.0,29.84,NNE,30,0.0,0.0,95,0.00,,,0.00,weatherlink.com 1.10,2013-10-19 11:52:00,
2013-10-19 07:07:00,37.1,36.0,29.84,NNE,30,0.0,0.0,95,0.00,,,0.00,weatherlink.com 1.10,2013-10-19 12:07:00,
2013-10-19 07:22:00,37.2,36.0,29.84,NNE,30,0.0,0.0,95,0.00,,,0.00,weatherlink.com 1.10,2013-10-19 12:22:00,
2013-10-19 07:37:00,37.1,36.0,29.84,NNE,30,0.0,0.0,95,0.00,,,0.00,weatherlink.com 1.10,2013-10-19 12:37:00,
2013-10-19 07:52:00,37.2,36.0,29.84,NNE,30,0.0,0.0,95,0.00,,,0.00,weatherlink.com 1.10,2013-10-19 12:52:00,
2013-10-19 08:07:00,37.2,36.0,29.84,NNE,30,0.0,0.0,95,0.00,,,0.00,weatherlink.com 1.10,2013-10-19 13:07:00,
2013-10-19 08:22:00,37.1,36.0,29.84,NNE,30,0.0,0.0,95,0.00,,,0.00,weatherlink.com 1.10,2013-10-19 13:22:00,
2013-10-19 08:37:00,37.4,36.0,29.84,NNE,30,0.0,0.0,95,0.00,,,0.00,weatherlink.com 1.10,2013-10-19 13:37:00,
2013-10-19 08:52:00,38.1,37.0,29.84,NNE,30,0.0,0.0,94,0.00,,,0.00,weatherlink.com 1.10,2013-10-19 13:52:00,
2013-10-19 09:07:00,39.2,37.0,29.83,North,360,0.0,1.0,92,0.00,,,0.00,weatherlink.com 1.10,2013-10-19 14:07:00,
2013-10-19 09:22:00,40.4,37.0,29.82,NNE,27,0.0,0.0,86,0.00,,,0.00,weatherlink.com 1.10,2013-10-19 14:22:00,
2013-10-19 09:37:00,41.7,37.0,29.82,NNE,27,0.0,0.0,82,0.00,,,0.00,weatherlink.com 1.10,2013-10-19 14:37:00,
2013-10-19 09:52:00,42.8,37.0,29.82,NE,34,0.0,2.0,81,0.00,,,0.00,weatherlink.com 1.10,2013-10-19 14:52:00,
2013-10-19 10:07:00,43.8,36.0,29.82,South,179,0.0,2.0,75,0.00,,,0.00,weatherlink.com 1.10,2013-10-19 15:07:00,
2013-10-19 10:22:00,44.8,36.0,29.81,South,173,0.0,2.0,70,0.00,,,0.00,weatherlink.com 1.10,2013-10-19 15:22:00,
2013-10-19 10:37:00,45.5,37.0,29.81,South,173,0.0,1.0,73,0.00,,,0.00,weatherlink.com 1.10,2013-10-19 15:37:00,
2013-10-19 10:52:00,46.1,37.0,29.81,NE,35,0.0,1.0,71,0.00,,,0.00,weatherlink.com 1.10,2013-10-19 15:52:00,
2013-10-19 11:07:00,46.4,37.0,29.80,SSE,155,0.0,2.0,71,0.00,,,0.00,weatherlink.com 1.10,2013-10-19 16:07:00,
2013-10-19 11:22:00,47.1,37.0,29.80,SE,144,0.0,2.0,67,0.00,,,0.00,weatherlink.com 1.10,2013-10-19 16:22:00,
2013-10-19 11:37:00,47.4,37.0,29.80,South,188,2.0,2.0,67,0.00,,,0.00,weatherlink.com 1.10,2013-10-19 16:37:00,
2013-10-19 11:52:00,48.1,36.0,29.79,North,360,0.0,3.0,63,0.00,,,0.00,weatherlink.com 1.10,2013-10-19 16:52:00,
2013-10-19 12:07:00,48.8,36.0,29.79,NNW,331,2.0,3.0,62,0.00,,,0.00,weatherlink.com 1.10,2013-10-19 17:07:00,
2013-10-19 12:22:00,49.4,37.0,29.79,SSW,211,0.0,4.0,62,0.00,,,0.00,weatherlink.com 1.10,2013-10-19 17:22:00,
2013-10-19 12:37:00,49.0,37.0,29.78,SSW,211,0.0,5.0,63,0.00,,,0.00,weatherlink.com 1.10,2013-10-19 17:37:00,
2013-10-19 12:52:00,49.1,37.0,29.78,SW,218,0.0,4.0,64,0.00,,,0.00,weatherlink.com 1.10,2013-10-19 17:52:00,
2013-10-19 13:07:00,49.4,38.0,29.77,SSW,204,0.0,4.0,65,0.00,,,0.00,weatherlink.com 1.10,2013-10-19 18:07:00,
2013-10-19 13:23:00,49.0,38.0,29.77,SSW,193,5.0,5.0,65,0.00,,,0.00,weatherlink.com 1.10,2013-10-19 18:23:00,
2013-10-19 13:38:00,48.5,37.0,29.77,South,190,1.0,4.0,64,0.00,,,0.00,weatherlink.com 1.10,2013-10-19 18:38:00,
2013-10-19 13:53:00,48.3,37.0,29.77,South,182,3.0,5.0,64,0.00,,,0.00,weatherlink.com 1.10,2013-10-19 18:53:00,
2013-10-19 14:08:00,47.7,36.0,29.76,WNW,303,1.0,2.0,64,0.00,,,0.00,weatherlink.com 1.10,2013-10-19 19:08:00,
2013-10-19 14:23:00,47.3,36.0,29.76,SSE,161,0.0,3.0,64,0.00,,,0.00,weatherlink.com 1.10,2013-10-19 19:23:00,
2013-10-19 14:38:00,47.2,35.0,29.76,South,182,0.0,4.0,63,0.00,,,0.00,weatherlink.com 1.10,2013-10-19 19:38:00,
2013-10-19 14:53:00,47.8,38.0,29.76,South,178,1.0,3.0,69,0.00,,,0.00,weatherlink.com 1.10,2013-10-19 19:53:00,
2013-10-19 15:08:00,49.1,36.0,29.75,SE,143,1.0,3.0,62,0.00,,,0.00,weatherlink.com 1.10,2013-10-19 20:08:00,
2013-10-19 15:23:00,49.2,37.0,29.76,NE,52,0.0,3.0,62,0.00,,,0.00,weatherlink.com 1.10,2013-10-19 20:23:00,
2013-10-19 15:38:00,48.7,35.0,29.76,SSW,199,0.0,4.0,60,0.00,,,0.00,weatherlink.com 1.10,2013-10-19 20:38:00,
2013-10-19 15:53:00,48.4,37.0,29.76,ESE,113,0.0,3.0,65,0.00,,,0.00,weatherlink.com 1.10,2013-10-19 20:53:00,
2013-10-19 16:08:00,48.6,36.0,29.76,SSE,167,0.0,2.0,63,0.00,,,0.00,weatherlink.com 1.10,2013-10-19 21:08:00,
2013-10-19 16:23:00,48.5,37.0,29.75,South,180,0.0,3.0,64,0.00,,,0.00,weatherlink.com 1.10,2013-10-19 21:23:00,
2013-10-19 16:38:00,48.3,37.0,29.76,SSE,165,0.0,3.0,64,0.00,,,0.00,weatherlink.com 1.10,2013-10-19 21:38:00,
2013-10-19 16:53:00,48.1,37.0,29.76,SSE,165,0.0,2.0,66,0.00,,,0.00,weatherlink.com 1.10,2013-10-19 21:53:00,
2013-10-19 17:08:00,47.0,37.0,29.78,SW,220,2.0,6.0,69,0.00,,,0.00,weatherlink.com 1.10,2013-10-19 22:08:00,
2013-10-19 17:23:00,44.7,39.0,29.79,SW,216,0.0,4.0,79,0.00,,,0.00,weatherlink.com 1.10,2013-10-19 22:23:00,
2013-10-19 17:38:00,43.1,39.0,29.79,SW,216,0.0,1.0,86,0.02,,,0.02,weatherlink.com 1.10,2013-10-19 22:38:00,
2013-10-19 17:53:00,42.2,39.0,29.79,SW,216,0.0,0.0,88,0.02,,,0.02,weatherlink.com 1.10,2013-10-19 22:53:00,
2013-10-19 18:08:00,41.8,39.0,29.79,SW,216,0.0,0.0,90,0.02,,,0.02,weatherlink.com 1.10,2013-10-19 23:08:00,
2013-10-19 18:23:00,41.6,39.0,29.79,SW,216,0.0,0.0,91,0.02,,,0.02,weatherlink.com 1.10,2013-10-19 23:23:00,
2013-10-19 18:38:00,41.5,39.0,29.79,SW,216,0.0,0.0,92,0.00,,,0.02,weatherlink.com 1.10,2013-10-19 23:38:00,
2013-10-19 18:53:00,41.2,39.0,29.79,SW,216,0.0,0.0,92,0.00,,,0.02,weatherlink.com 1.10,2013-10-19 23:53:00,
2013-10-19 19:08:00,40.9,39.0,29.79,SW,216,0.0,0.0,93,0.00,,,0.02,weatherlink.com 1.10,2013-10-20 00:08:00,
2013-10-19 19:23:00,40.7,39.0,29.80,SW,216,0.0,0.0,93,0.00,,,0.02,weatherlink.com 1.10,2013-10-20 00:23:00,
2013-10-19 19:38:00,40.4,39.0,29.80,SW,216,0.0,0.0,94,0.00,,,0.02,weatherlink.com 1.10,2013-10-20 00:38:00,
2013-10-19 19:53:00,40.1,39.0,29.80,SW,216,0.0,0.0,94,0.00,,,0.02,weatherlink.com 1.10,2013-10-20 00:53:00,
2013-10-19 20:08:00,39.9,38.0,29.80,SW,216,0.0,0.0,94,0.00,,,0.02,weatherlink.com 1.10,2013-10-20 01:08:00,
2013-10-19 20:23:00,39.6,38.0,29.80,SW,216,0.0,0.0,94,0.00,,,0.02,weatherlink.com 1.10,2013-10-20 01:23:00,
2013-10-19 20:38:00,39.6,38.0,29.80,SW,216,0.0,1.0,95,0.00,,,0.02,weatherlink.com 1.10,2013-10-20 01:38:00,
2013-10-19 20:53:00,39.7,38.0,29.80,SW,216,0.0,1.0,94,0.00,,,0.02,weatherlink.com 1.10,2013-10-20 01:53:00,
2013-10-19 21:08:00,39.6,38.0,29.80,SW,216,0.0,1.0,95,0.00,,,0.02,weatherlink.com 1.10,2013-10-20 02:08:00,
2013-10-19 21:23:00,39.9,39.0,29.80,SW,216,0.0,0.0,95,0.00,,,0.02,weatherlink.com 1.10,2013-10-20 02:23:00,
2013-10-19 21:38:00,40.1,39.0,29.81,South,188,0.0,1.0,95,0.00,,,0.02,weatherlink.com 1.10,2013-10-20 02:38:00,
2013-10-19 21:53:00,40.5,39.0,29.81,South,188,0.0,0.0,95,0.00,,,0.02,weatherlink.com 1.10,2013-10-20 02:53:00,
2013-10-19 22:08:00,40.7,39.0,29.81,South,188,0.0,1.0,95,0.00,,,0.02,weatherlink.com 1.10,2013-10-20 03:08:00,
2013-10-19 22:23:00,41.0,39.0,29.81,South,188,0.0,1.0,94,0.00,,,0.02,weatherlink.com 1.10,2013-10-20 03:23:00,
2013-10-19 22:38:00,41.0,39.0,29.81,SSW,192,0.0,2.0,94,0.00,,,0.02,weatherlink.com 1.10,2013-10-20 03:38:00,
2013-10-19 22:53:00,40.9,39.0,29.81,SSW,192,0.0,1.0,93,0.00,,,0.02,weatherlink.com 1.10,2013-10-20 03:53:00,
2013-10-19 23:08:00,40.5,39.0,29.81,SSW,192,0.0,1.0,93,0.00,,,0.02,weatherlink.com 1.10,2013-10-20 04:08:00,
2013-10-19 23:23:00,40.1,38.0,29.81,SSW,192,0.0,1.0,93,0.00,,,0.02,weatherlink.com 1.10,2013-10-20 04:23:00,
2013-10-19 23:38:00,40.0,38.0,29.81,South,184,0.0,2.0,93,0.00,,,0.02,weatherlink.com 1.10,2013-10-20 04:38:00,
2013-10-19 23:53:00,39.7,38.0,29.81,SSE,156,0.0,1.0,94,0.00,,,0.02,weatherlink.com 1.10,2013-10-20 04:53:00,